Location: Hilton Head Island
(32.2163°N, 80.7526°W)
Time: 14:33:28
(UTC-04:00)

Vanguard 2 Rocket - Pass Details

Date: 16 February 2026
Orbit: 553 x 3286 km, 32.9° (Epoch: 10 March)

Event Time Altitude Azimuth Distance (km) Brightness Sun altitude
Rises 10:15:20 0° 209° (SSW) 6,983 11.6 34.1°
Reaches altitude 10° 10:20:33 10° 202° (SSW) 6,133 11.5 34.9°
Maximum altitude 10:37:30 36° 144° (SE) 4,292 14.5 37.2°
Drops below altitude 10° 10:51:54 10° 86° (E) 5,292 11.2 39.0°
Sets 10:55:54 0° 78° (ENE) 5,972 11.3 39.4°
